Location: Newark
(43.6583°N, 1.6617°E)
Time: 16:34:15
(UTC+00:00)

Courier 1B - Pass Details

Date: 29 August 2019
Orbit: 962 x 1209 km, 28.3° (Epoch: 15 October)

Event Time Altitude Azimuth Distance (km) Brightness Sun altitude
Rises 16:40:35 0° 244° (WSW) 3,926 11.9 19.7°
Reaches altitude 10° 16:44:04 10° 230° (SW) 2,922 11.1 19.1°
Maximum altitude 16:49:18 22° 182° (S) 2,099 9.5 18.1°
Drops below altitude 10° 16:54:19 10° 134° (SE) 2,790 9.6 17.2°
Sets 16:57:33 0° 120° (ESE) 3,704 10.0 16.6°
